IRIDIUM 33 DEB, 46974

Orbit data source: Space-Track

IRIDIUM 33 DEB, 46974 is space debris in LEO originally from a launch on Sun, 14 Sep 1997 UTC launched from the Tyuratam Missile And Space Complex (TTMTR). The debris from Iridium 33, an American commercial communications satellite, has been tracked extensively since its accidental collision with the defunct Russian satellite Cosmos 2251 in 2009. This event, occurring at high speed in low Earth orbit (LEO), generated thousands of pieces of space debris, significantly increasing the risk of further collisions. The Iridium 33 debris cloud has impacted space traffic management and orbital debris mitigation strategies, making it a subject of ongoing study in space situational awareness.

Loading next visibility...
Identifier
46974, 1997-051ACG
Orbit
LEO
Country
Flag of USUS
Related business
Manufacturer
Unknown
Mission
Spacecraft
Bus & Motor
Unknown
Mass
Unknown
Launch date (UTC)
1997-09-14 (28 years ago)
Launch vehicle
Unknown
Launch site
Tyuratam Missile And Space Complex (TTMTR)
Object type
Payload
Rocket body
Debris
Shape & HBR
Unknown shape, 0.1 m
Radar Cross Section
Small (<0.1 m²)

Expand to show TLE details & history
Last TLE update: 3 days ago

TLE from 3 days ago
0 IRIDIUM 33 DEB
1 46974U 97051ACG 25348.59005873  .00012692  00000-0  34715-2 0  9993
2 46974  86.2983 104.4675 0095682 181.0289 179.0732 14.44439168575352
Epoch: 2025-12-14T14:09Z
TLE epoch observation values (Epoch: 2025-12-14T14:09:41.074Z)
Latitude
0.00001°
Longitude
168.54556°
Altitude
815.084 km
Speed
7.41 km/s
True Right ascension
06h 57m 52s
True Declination
0° 00' 00"
Sunlit
Object was in full shadow at epoch
Visualization orbit readout
Latitude
Unknown
Longitude
Unknown
Altitude
Unknown
Speed
Unknown
Apparent Right ascension
Unknown
Apparent Declination
Unknown
Sunlit
N/A
Visualization observer readout
Local Sidereal Time
04:58:49
Azimuth
Unknown
Elevation
Unknown
Doppler factor
Unknown
Orbital elements
Apogee altitude
808.936 km
Perigee altitude
672.705 km
Semi-major axis
7,118.958 km
Eccentricity
0.00957
Inclination
86.2983°
RAAN
104.4675°
Arg. of periapsis
181.0289°
True anomaly
179.09073°
Mean anomaly
179.0732°
Eccentric anomaly
179.08198°
Mean motion
3.61342 °/min
Orbital period
99.63 mins
BSTAR
0.0034715

Documentation

Showing up to 5 results
|